Regional Weather Roundup
Issued by NWS

Home | Current Version | Previous Version | Graphics & Text | Print | Product List | Glossary On
Versions: 1 2 3 4 5 6 7 8 9 10 11 12 13 14 15 16 17 18 19 20 21 22 23 24 25 26 27 28 29 30 31 32 33 34 35 36 37 38 39 40 41 42 43 44 45 46 47 48 49 50
000
ASUS43 KMKX 201921
RWRWI

WISCONSIN REGIONAL WEATHER ROUNDUP
NATIONAL WEATHER SERVICE MILWAUKEE/SULLIVAN WI
200 PM CDT WED AUG 20 2014

NOTE: "FAIR" INDICATES FEW OR NO CLOUDS BELOW 12,000 FEET WITH NO
SIGNIFICANT WEATHER AND/OR OBSTRUCTIONS TO VISIBILITY.

WIZ001-002-006>008-014>016-023>028-202000-
NORTHWEST WISCONSIN

CITY           SKY/WX    TMP DP  RH WIND       PRES   REMARKS
SUPERIOR ARPT  PTSUNNY   75  62  63 E8        29.88S
ASHLAND        CLOUDY    71  60  68 CALM      29.90F
HAYWARD        CLOUDY    70  59  68 VRB3      29.90F
SIREN          PTSUNNY   74  59  59 CALM      29.90R
RICE LAKE      CLOUDY    72  60  64 CALM      29.92R
LADYSMITH      CLOUDY    71  59  66 CALM      29.92R
EAU CLAIRE     MOSUNNY   76  62  62 NE8       29.88F
MENOMONIE      MOCLDY    78  61  56 NE5       29.89R
NEW RICHMOND   CLOUDY    75  62  63 SE3       29.90R
OSCEOLA        CLOUDY    76  63  65 CALM      29.92R
$$

WIZ003>005-009-010-017-018-202000-
NORTH CENTRAL WISCONSIN

CITY           SKY/WX    TMP DP  RH WIND       PRES   REMARKS
WOODRUFF       CLOUDY    72  62  71 N7        29.91F
RHINELANDER    CLOUDY    67  58  72 N3        29.92F
EAGLE RIVER    CLOUDY    67  58  71 N6        29.91F
LAND O LAKES   CLOUDY    67  58  75 W3        29.93F
PHILLIPS       CLOUDY    67  58  73 CALM      29.91R
TOMAHAWK       CLOUDY    67  58  71 CALM      29.92S
MEDFORD        CLOUDY    68  59  73 CALM      29.92R
MERRILL        CLOUDY    68  60  75 CALM      29.90F
$$

WIZ029-030-035-036-043>047-202000-
CENTRAL WISCONSIN

CITY           SKY/WX    TMP DP  RH WIND       PRES   REMARKS
WAUSAU         LGT RAIN  70  61  73 S6        29.89F
MOSINEE        CLOUDY    70  63  78 CALM      29.92F
MARSHFIELD     MOSUNNY   72  61  68 VRB5      29.91S
STEVENS POINT  CLOUDY    67  59  76 CALM      29.91F
WAUPACA        MOSUNNY   76  63  63 N8        29.90F
WAUTOMA        MOSUNNY   80  63  56 VRB5      29.88F HX  81
WISC RAPIDS    PTSUNNY   76  62  62 N5        29.90F
CAMP DOUGLAS   MOSUNNY   81  66  61 NW5       29.88S HX  83
$$

WIZ011>013-019>022-031-037>040-048>050-202000-
NORTHEAST WISCONSIN

CITY           SKY/WX    TMP DP  RH WIND       PRES   REMARKS
ANTIGO         CLOUDY    69  60  72 N3        29.91F
STURGEON BAY   CLOUDY    66  61  82 W7        29.91R
GREEN BAY      CLOUDY    69  62  78 CALM      29.90S
MANITOWOC      CLOUDY    72  63  73 NW8       29.91R
APPLETON       PTSUNNY   70  61  73 W5        29.91S
CLINTONVILLE   CLOUDY    70  59  68 W3        29.90S
OSHKOSH        PTSUNNY   74  66  76 SE8       29.89S
$$

WIZ032>034-041-042-053>061-202000-
SOUTHWEST WISCONSIN

CITY           SKY/WX    TMP DP  RH WIND       PRES   REMARKS
LA CROSSE      MOSUNNY   83  65  54 CALM      29.85F HX  85
SPARTA         MOSUNNY   80  62  53 CALM      29.87F HX  82
VIROQUA        MOCLDY    81  64  57 W8        29.89S HX  82
BOSCOBEL       MOSUNNY   84  66  54 W8        29.86F HX  86
PRAIRIE DU CHI PTSUNNY   83  64  51 S5        29.85S HX  84
PLATTEVILLE    FAIR      82  67  61 S10       29.89F HX  84
$$

WIZ056-057-062-063-064-067-068-202000-
SOUTH CENTRAL WISCONSIN

CITY           SKY/WX    TMP DP  RH WIND       PRES   REMARKS
BARABOO/DELLS  PTSUNNY   83  60  46 W7        29.88S HX  83
LONE ROCK      SUNNY     88  65  46 VRB5      29.86F HX  90
WATERTOWN      SUNNY     81  66  60 W7        29.88S HX  83
MADISON        PTSUNNY   84  64  50 VRB5      29.87F HX  85
MIDDLETON      FAIR      84  62  46 W9        29.88S HX  85
MONROE         PTSUNNY   82  66  57 SW14      29.89F HX  85
JANESVILLE     NOT AVBL
$$

WIZ051-052-058>065-066-070>072-202000-
SOUTHEAST WISCONSIN

CITY           SKY/WX    TMP DP  RH WIND       PRES   REMARKS
MILWAUKEE      MOSUNNY   75  66  73 E13       29.88F
WAUKESHA       MOSUNNY   79  63  57 W5        29.90F HX  80
MILWAUKEE/TIMM PTSUNNY   81  63  54 NW6       29.89S HX  82
RACINE         PTSUNNY   77  66  68 SE12      29.90F
BURLINGTON     MOSUNNY   79  64  59 W3        29.89F HX  81
KENOSHA        MOSUNNY   83  66  56 SW7       29.89F HX  85
FOND DU LAC    MOSUNNY   77  66  68 NE8       29.89F
SHEBOYGAN      PTSUNNY   76  63  64 NW8       29.89S
WEST BEND      PTSUNNY   77  63  61 NW8       29.89F
JUNEAU         PTSUNNY   78  39  24 W7        29.90S
$$

LSZ147-162-202000-
LAKE SUPERIOR

STATION/POSITION TIME  TEMP    WIND        PRES    WAVE
                       AIR SEA DIR/SP/G            HT/PER
                 (UTC) (F)     (DEG/KT/KT) (MB)    (FT/S)
W MID LAKE BUOY  1850   60 59     CALM     1012.6R   1
DEVILS ISLAND    1900   68      60/  2/  2 1012.6S
PORT WING        1800   66     310/  6/  6 1012.5S
SAXON HARBOR     1800   66      40/  4/  5 1012.9S
$$

LMZ867-665-643>646-202000-
LAKE MICHIGAN

STATION/POSITION TIME  TEMP    WIND        PRES    WAVE
                       AIR SEA DIR/SP/G            HT/PER
                 (UTC) (F)     (DEG/KT/KT) (MB)    (FT/S)
N MID LAKE BUOY  1850   62 62  290/  6/  6 1011.5R   1/ 3
NORTHPORT PIER   1800   64     310/  8/ 10 1011.5S
SISTER BAY       1811   70     330/  7/  8   N/A
KEWAUNEE LAKESHO 1900   66     150/  7/  7 1011.8R
SHEBOYGAN LAKESH 1900   66 67  130/  8/  8 1012.5F
ATWATER BUOY     1900   69     130/ 10/ 12 1013.1F
MILWAUKEE LAKESH 1900   69     110/ 10/ 12   N/A
S MID LAKE BUOY  1850   69 69  140/  6/  6 1012.9F   0
KENOSHA   LAKESH 1900   74     100/ 11/ 13 1011.5F
$$

TC  - TEMPERATURE IN CELSIUS
VSB - VISIBILITY IN STATUTE MILES
WCI - WIND CHILL INDEX
HX  - HEAT INDEX



USA.gov is the U.S. government's official web portal to all federal, state and local government web resources and services.